www.pogodaiklimat.ru

Погода и климат >> Архив погоды >> Испания >> Авилес


ПОГОДА в Авилесе

  • Прогноз погоды в Авилесе
  • Монитор погоды в Авилесе

АРХИВ ПОГОДЫ в Авилесе

Время (UTC), дата Ветер
(напр.,м/с)
 
Видим.   Явления Облачность Т
(С)
Тd
(С)
f
(%)
Тe
(С)
Тes
(С)
Комфортность P
(гПа)
Po
(гПа)
Тmin
(С)
Tmax
(С)
R
(мм)
R24
(мм)
S
(см)
03 20.06 штиль 0 н/о н/о +14.4 +13.9 97 +14 +14 1017.9 1002.5 0.0
06 20.06 В 2 7000 м слаб. морось {дождь} 10/10 100 м
[Frnb]
+14.3 +14.0 98 +14 +14 1018.0 1002.6 +14.0 0.1
09 20.06 В 3 8000 м слаб. морось 10/10 100 м
[Cu Sc]
+15.0 +14.2 95 +14 +14 1018.4 1002.9 0.0
12 20.06 СВ 2 15 км {морось} 10/6 200 м
[Cu Sc Ac As]
+15.8 +14.3 91 +16 +18 1018.7 1003.3
15 20.06 СВ 3 10 км 10/4 200 м
[Cu Sc Ac As]
+16.0 +14.0 88 +16 +18 1018.6 1003.2
18 20.06 В 1 н/о в посл. час дождь н/о +15.5 +14.2 92 +16 +17 1018.9 1003.5 +16.8 0.0
21 20.06 В 2 10 км 9/3 200 м
[Cu Sc Ac As]
+14.7 +13.9 95 +14 +14 1019.6 1004.2 0.0
00 21.06 В 3 4500 м в посл. час ливневой дождь 10/6 200 м
[Cu med, cong Ac As]
+14.4 +13.9 97 +14 +14 1019.8 1004.4 1
03 21.06 В 3 н/о осадки н/о +14.0 +13.7 98 +13 +13 1019.8 1004.4 1
06 21.06 В 3 9000 м слаб. дождь 10/9 100 м
[Cu Sc Ac As]
+13.5 +13.0 97 +12 +12 1020.7 1005.2 +13.5 1
09 21.06 ЮВ 4 12 км {дождь, морось} 10/9 300 м
[Cu Sc Ac As]
+15.3 +13.5 89 +14 +15 1021.3 1005.9 0.0
12 21.06 В 4 24 км {дождь, морось} 8/5 600 м
[Cu Sc Ac und]
+17.7 +12.6 72 +18 +22 1021.1 1005.7
15 21.06 В 7 30 км 3/3 600 м
[Cu Sc]
+18.4 +13.6 74 +18 +21 1020.1 1004.8
18 21.06 В 5 30 км 3/3 600 м
[Cu Sc]
+17.6 +12.4 72 +17 +18 1020.1 1004.8 +18.9
21 21.06 В 4 30 км 3/3 600 м
[Cu Sc]
+13.9 +12.1 89 +12 +12 1020.1 1004.6
00 22.06 ЮВ 4 30 км 3/1 600 м
[Cu Sc Ac trans]
+13.2 +11.9 92 +12 +12 1018.7 1003.2
03 22.06 ЮВ 3 н/о н/о +11.9 +11.1 95 +10 +10 1016.7 1001.2
06 22.06 Ю 2 18 км 9/0 1500 м
[Ac lent Cs]
+13.8 +12.8 94 +13 +14 1015.1 999.7 +11.4
09 22.06 ЮВ 2 30 км 9/0
[Ac trans Cs]
+20.3 +15.3 73 +24 +31 комфорт 1013.0 997.9
12 22.06 СЗ 3 28 км 9/0 1500 м
[Ac trans Cs]
+20.3 +14.5 69 +23 +33 комфорт 1012.7 997.6
15 22.06 СЗ 3 30 км 9/0
[Ac inh]
+19.0 +14.3 74 +21 +25 комфорт 1011.4 996.3
18 22.06 СЗ 3 30 км 9/0
[Ac inh Ci fib]
+17.4 +16.1 92 +18 +19 1011.3 996.1 +23.4
21 22.06 СЗ 3 15 км 8/1 100 м
[St Ac trans Ci fib]
+15.9 +15.6 98 +16 +16 1012.0 996.7
00 23.06 ЮЗ 1 20 км 5/0
[Ac trans Ci fib]
+15.3 +14.1 93 +16 +16 1010.1 994.8
03 23.06 СЗ 5 н/о осадки н/о +16.4 +14.6 89 +16 +16 1010.8 995.5 0.0
06 23.06 штиль 0 10 км в посл. час дождь 8/3 1000 м
[Frnb Ac und Ci fib]
+15.1 +14.3 95 +15 +15 1010.3 995.0 +15.1 1
09 23.06 штиль 0 8000 м ливневой дождь 10/4 600 м
[Cu med, cong Ac As]
+16.9 +15.0 89 +17 +19 1012.0 996.8 0.2
12 23.06 С 3 7000 м в посл. час дождь {ливн. осадки} 10/8 100 м
[Frnb Ac As]
+17.6 +16.8 95 +18 +19 1012.0 996.8 3
15 23.06 В 3 15 км 10/4 300 м
[Cu Sc Ac As]
+19.3 +16.8 85 +22 +24 комфорт 1012.3 997.2 0.0
18 23.06 В 4 24 км 9/4 1000 м
[Cu med, cong Ac lent Cs]
+18.3 +15.3 83 +19 +19 1012.6 997.4 +19.7
21 23.06 В 5 18 км 9/3 600 м
[Cu hum Ac lent Cs]
+17.0 +14.0 82 +16 +16 1013.4 998.1
00 24.06 В 2 3000 м дождь 9/6 <50 м
[Frnb Ac As]
+15.5 +15.0 97 +15 +15 1013.9 998.6 3
03 24.06 В 2 н/о осадки н/о +15.3 +15.1 99 +15 +15 1013.5 998.1 3
06 24.06 СЗ 2 6000 м слаб. морось {дождь} 10/10 100 м
[Frnb]
+15.1 +14.9 99 +15 +15 1014.5 999.1 +15.0 0.2
09 24.06 В 2 9000 м слаб. дождь {морось} 10/9 100 м
[Frnb Ac As]
+15.7 +15.4 98 +16 +16 1014.6 999.3 0.3
12 24.06 В 3 н/о осадки н/о +15.9 +15.6 98 +16 +16 1014.8 999.5 4
15 24.06 ЮВ 4 н/о осадки н/о +16.9 +16.6 98 +16 +16 1014.3 999.0 2
18 24.06 ЮВ 3 2300 м дымка {дождь, туман} 10/10 50 м
[Frnb]
+17.2 +16.9 98 +17 +17 1014.8 999.5 +17.6
21 24.06 Ю 1 600 м туман местами 5/0
[Ac cast]
+16.0 +15.7 98 +17 +17 1015.8 1000.5
00 25.06 З 5 300 м туман ?/? +15.6 +15.6 100 +14 +14 1016.5 1001.1 0.0
03 25.06 З 2 н/о в посл. час осадки н/о +15.7 +15.7 100 +16 +16 1016.5 1001.1 0.0
06 25.06 Ю 1 2000 м дымка {туман} 9/8 <50 м
[Frnb Ac und]
+15.9 +15.9 100 +17 +17 1016.7 1001.3 +15.0 0.0
09 25.06 В 3 2000 м дымка {туман} 10/10 50 м
[Frnb]
+16.8 +16.3 97 +17 +17 1017.5 1002.2
12 25.06 В 3 3000 м дымка {туман} 10/10 50 м
[Frnb]
+17.3 +16.5 95 +17 +17 1018.0 1002.7
15 25.06 В 4 9000 м дымка 10/9 100 м
[Frnb Ac As]
+18.5 +17.2 92 +19 +20 1017.6 1002.4
18 25.06 ЮВ 4 10 км 9/4 600 м
[Sc Ac und Cs]
+19.0 +16.7 87 +20 +21 1017.6 1002.4 +19.8
21 25.06 ЮВ 4 4000 м дымка 10/8 200 м
[Frnb Ac As]
+16.7 +16.4 98 +16 +16 1018.2 1002.9
00 26.06 В 3 6000 м дымка {дождь} 10/9 100 м
[Frnb Ac As]
+16.6 +16.4 99 +16 +16 1017.3 1002.0 0.4
03 26.06 В 4 н/о н/о +16.6 +16.3 98 +16 +16 1016.1 1000.8
06 26.06 В 5 1500 м слаб. морось {туман} 10/10 <50 м
[Frnb]
+16.7 +16.5 99 +16 +16 1015.3 1000.0 +16.5
09 26.06 ЮВ 3 8000 м дымка {туман} 6/6 200 м
[St Ci fib]
+20.1 +17.9 87 +24 +27 комфорт 1014.0 998.9
12 26.06 С 2 12 км {туман} 3/1 300 м
[Cu hum Ci fib]
+21.8 +18.6 82 +27 +43 душно 1013.6 998.6
15 26.06 СЗ 2 15 км 1/1 1500 м
[Sc diur, vesp Cc]
+21.5 +18.3 82 +26 +38 душно 1014.4 999.4
18 26.06 СЗ 3 15 км 4/1 300 м
[St Ac cuf Cc]
+19.4 +17.3 88 +22 +24 комфорт 1017.2 1002.0 +22.0
21 26.06 Ю 1 15 км 3/0
[Ac cuf Cs]
+16.7 +14.7 88 +18 +18 1019.0 1003.6

 

Местоположение метеостанции Авилес (Испания): широта 43.55 долгота -6.03 высота над уровнем моря 127 м.

В архиве по умолчанию представлена погода в Авилесе за последнюю неделю. Архивные данные за месяц целиком и за предыдущие месяцы, начиная с января 2011 года, Вы можете получить, выбрав интересующий диапазон дат из раскрывающегося списка и нажав кнопку "Ввод!".


*Определитесь, кто Вы:
робот инопланетянин человек

Внимание! Время в таблицах - всемирное. Для получения местного времени необходимо прибавить поправку, которая равна 1 ч.

Смотрите также архив погоды в соседних городах и на ближайших метеорологических станциях:

Погода на Кабо Пеньяс (Испания) (19 км)
Погода в Овьедо (Испания) (26 км)
Погода в Хихоне (Испания) (27 км)
Погода на Кабо Бусто (Испания) (36 км)
Погода в Вальгранде-Пахаресе (Испания) (67 км)
Погода в Пуэрто-де-Лейтарьегосе (Испания) (69 км)
Погода в Пуэрто-де-Сан-Исидро (Испания) (76 км)
Погода в Кастрополе (Испания) (80 км)
Погода в Льянесе (Испания) (104 км)
Погода в Леоне (Испания) (112 км)

Пояснения к столбцам:

Ветер - указаны скорость ветра в м/с - средняя за 10 мин, порывы в срок и между сроками (в фигурных скобках) и направление, откуда дует ветер: С - северный, СВ - северо-восточный, В - восточный, ЮВ - юго-восточный, Ю - южный, ЮЗ - юго-западный, З - западный, СЗ - северо-западный.
Видимость - горизонтальная дальность видимости в метрах или километрах. При видимости от 1 до 10 км при отсутствии осадков обычно наблюдается дымка, при ухудшении видимости до 1 км и менее - туман. В сухую погоду видимость может ухудшаться дымом, пылью или мглою.
Явления - указаны атмосферные явления, наблюдавшиеся в срок или в последний час перед сроком; фигурными скобками обозначены явления, наблюдавшиеся между сроками (за 1-3 часа до срока); квадратными скобками обозначены град или гололедные отложения с указанием их диаметра в мм.
Облачность - указаны через наклонную черту общая и нижняя облачность в баллах и высота нижней границы облаков в метрах; квадратными скобками обозначены формы облаков: Ci - перистые, Cs - перисто-слоистые, Cc - перисто-кучевые, Ac - высококучевые, As - высокослоистые, Sc - слоисто-кучевые, Ns - слоисто-дождевые, Cu - кучевые, Cb - кучево-дождевые. Подробнее классификацию облаков см. в Атласе облаков (PDF).
T - Температура воздуха - температура, измеренная на высоте 2 м над землей.
Td - Температура точки росы - температура, при понижении до которой содержащийся в воздухе водяной пар достигнет насыщения.
f - Относительная влажность воздуха - влажноcть воздуха, измеренная на высоте 2 м над землей.
Te - Эффективная температура - температура, которую ощущает одетый по сезону человек в тени. Характеристика душности погоды. При расчете учитывается влияние влажности воздуха и скорости ветра на теплоощущения человека.
Tes - Эффективная температура на солнце - температура, которую ощущает человек, с поправкой на солнечный нагрев. Характеристика знойности погоды. Зависит от высоты солнца над горизонтом, облачности и скорости ветра. Ночью, в пасмурную погоду, а также при ветре 12 м/с и более поправка равна нулю.
P - Атмосферное давление - приведенное к уровню моря атмосферное давление.
Po - Атмосферное давление - измеренное на уровне метеостанции атмосферное давление.
Tmin - Минимальная температура - минимум температуры воздуха на высоте 2 м над землей.
Tmax - Максимальная температура - максимум температуры воздуха на высоте 2 м над землей.
R - Количество осадков - Количество выпавших осадков за период времени, мм. При наведении курсора мыши на число - период времени, за который выпало указанное количество осадков.
R24 - Количество осадков - Количество выпавших осадков за 24 часа, мм.
S - Снежный покров - Высота снежного покрова, см. При наведении курсора мыши на число - состояние снежного покрова и степень покрытия местности в баллах.